Temp
11 10 11 11 15 14 14 14 14 14 14 13 12 12 12 12 13 12 12 12 12 12 12 12 12 12 11 11 12 12 12 12 12
10 11 11 14 14 14 14 14 13 12 12 12 11 11 11 11 12 12 12 12 13 12 12 11 11 11 11 11 11 11 11 11 11
10 12 14 14 14 14 13 13 12 12 11 11 11 11 10 11 11 11 11 12 12 11 11 10 11 10 9 10 11 11 11 10 10
13 14 14 14 14 13 12 12 11 11 11 11 11 10 10 11 11 11 12 11 11 10 10 10 9 9 9 9 8 9 8 9 8
14 14 14 14 14 13 12 12 11 11 10 10 10 10 10 11 10 10 11 11 10 10 10 9 9 8 8 8 7 8 8 8 8
14 14 14 13 13 13 12 11 11 10 10 10 10 10 10 11 10 9 10 10 9 8 8 8 7 8 9 8 8 8 7 7 7
13 14 14 13 13 12 11 10 10 10 10 10 10 10 10 11 10 8 8 9 8 8 8 7 7 7 7 7 7 7 8 8 8
13 13 13 13 12 11 11 10 10 10 10 10 10 10 10 10 10 8 8 8 8 8 7 7 6 6 6 7 7 8 8 8 9
13 13 13 13 12 11 10 10 10 10 10 10 10 10 10 10 10 8 8 8 8 7 8 7 7 6 7 7 8 8 8 9 9
13 13 12 12 12 11 10 10 10 10 10 10 10 10 10 10 9 8 8 8 8 7 7 7 7 6 6 8 8 8 8 8 7
12 12 12 12 12 11 10 10 10 10 10 10 10 10 10 10 9 9 8 8 7 7 7 7 7 7 6 8 8 8 8 7 7
12 12 12 11 11 11 10 10 10 10 9 9 9 10 10 10 10 9 9 9 9 8 7 6 6 6 5 5 7 7 7 7 7
12 12 12 11 11 11 10 10 9 9 9 9 9 9 9 10 9 9 9 9 9 9 8 8 8 8 7 7 7 7 7 7 7
11 12 12 11 11 11 10 9 9 9 9 9 9 8 8 8 9 8 8 8 8 8 8 8 7 7 7 7 7 7 7 7 6
11 11 11 12 11 10 10 9 9 9 9 8 8 8 8 8 8 8 8 8 8 8 7 7 7 7 6 6 6 6 6 6 6
11 11 11 11 11 11 10 9 9 8 8 8 7 7 7 7 7 7 7 7 7 7 7 7 7 6 6 6 6 6 6 6 5
11 11 11 11 11 10 10 10 9 8 8 8 7 6 6 6 7 6 6 6 6 6 7 6 6 6 5 5 5 5 5 5 5
11 11 11 11 11 11 11 10 10 10 8 8 9 7 7 7 6 6 6 6 6 6 6 6 6 5 5 5 5 5 4 4 4
11 11 12 12 11 11 11 10 10 10 10 8 8 9 9 7 7 6 6 6 5 5 5 5 5 5 5 4 4 4 4 3 2
11 11 11 11 11 11 11 10 10 10 10 9 9 8 8 8 8 7 6 5 5 5 5 4 4 4 4 4 4 3 3 3 2
Height
1537 1538 1539 1540 1542 1545 1548 1549 1551 1553 1555 1557 1558 1560 1561 1561 1562 1562 1563 1564 1565 1565 1565 1565 1565 1566 1565 1565 1565 1565 1564 1564 1562
1537 1539 1540 1541 1544 1546 1548 1551 1553 1555 1557 1559 1561 1563 1563 1564 1565 1565 1567 1567 1568 1567 1567 1567 1567 1567 1566 1566 1566 1566 1566 1565 1564
1538 1539 1541 1543 1545 1548 1550 1553 1555 1558 1560 1562 1564 1565 1566 1566 1567 1568 1569 1569 1569 1569 1569 1569 1568 1568 1568 1568 1567 1567 1566 1565 1565
1539 1541 1543 1545 1547 1549 1551 1554 1558 1560 1561 1564 1565 1566 1567 1569 1569 1570 1571 1571 1570 1570 1570 1570 1570 1570 1570 1569 1568 1568 1567 1566 1566
1541 1543 1545 1547 1549 1551 1553 1556 1558 1560 1563 1564 1566 1567 1568 1570 1571 1573 1573 1572 1572 1572 1572 1572 1571 1571 1571 1570 1569 1569 1569 1568 1568
1542 1544 1546 1549 1551 1553 1555 1557 1559 1561 1563 1564 1567 1568 1569 1570 1572 1572 1575 1575 1574 1574 1573 1573 1573 1573 1572 1572 1572 1571 1571 1570 1569
1543 1545 1547 1550 1552 1554 1556 1558 1560 1562 1564 1566 1568 1569 1570 1570 1571 1573 1575 1576 1576 1575 1575 1574 1574 1574 1574 1573 1573 1572 1572 1571 1571
1543 1546 1548 1550 1553 1554 1557 1559 1561 1564 1566 1567 1568 1569 1570 1571 1572 1574 1576 1577 1577 1577 1576 1575 1576 1576 1575 1575 1575 1574 1573 1573 1572
1543 1546 1549 1551 1554 1556 1558 1560 1562 1565 1567 1568 1569 1570 1571 1572 1573 1574 1577 1578 1578 1578 1578 1578 1578 1577 1577 1577 1576 1576 1575 1574 1574
1543 1546 1549 1551 1554 1557 1558 1560 1563 1565 1567 1568 1569 1570 1571 1572 1574 1575 1577 1578 1579 1579 1580 1579 1579 1579 1578 1577 1577 1576 1576 1575 1574
1543 1546 1548 1551 1554 1557 1560 1561 1564 1566 1568 1568 1569 1570 1571 1573 1574 1575 1576 1578 1578 1579 1580 1580 1580 1580 1579 1578 1578 1577 1576 1575 1575
1543 1546 1548 1551 1554 1557 1560 1561 1564 1566 1567 1569 1569 1570 1571 1572 1574 1575 1577 1578 1578 1579 1579 1580 1580 1579 1579 1578 1578 1577 1576 1575 1574
1543 1546 1548 1551 1553 1556 1558 1561 1563 1565 1567 1568 1569 1570 1572 1573 1574 1575 1576 1577 1578 1578 1578 1579 1579 1579 1579 1578 1577 1577 1576 1574 1573
1542 1545 1547 1550 1552 1554 1556 1559 1562 1564 1567 1569 1570 1571 1572 1573 1574 1575 1576 1577 1577 1578 1578 1578 1579 1579 1578 1578 1577 1575 1574 1573 1571
1541 1543 1545 1547 1550 1552 1555 1558 1560 1563 1566 1568 1569 1571 1572 1573 1574 1574 1575 1576 1577 1577 1577 1577 1578 1578 1578 1577 1575 1573 1572 1570 1569
1538 1540 1543 1545 1547 1550 1552 1555 1558 1560 1563 1565 1567 1569 1570 1571 1573 1573 1573 1574 1575 1576 1576 1576 1576 1575 1575 1575 1573 1571 1569 1568 1566
1535 1537 1539 1542 1545 1547 1549 1551 1553 1556 1558 1561 1564 1566 1568 1567 1568 1570 1571 1571 1572 1574 1574 1574 1573 1572 1572 1572 1571 1569 1567 1566 1563
1532 1535 1537 1539 1540 1542 1545 1547 1549 1550 1554 1557 1559 1561 1561 1562 1563 1564 1567 1568 1569 1570 1571 1571 1571 1570 1569 1568 1567 1565 1564 1563 1561
1528 1530 1533 1535 1537 1539 1541 1543 1545 1548 1549 1552 1554 1554 1555 1558 1561 1562 1563 1566 1567 1567 1568 1569 1568 1566 1566 1565 1563 1562 1561 1560 1559
1524 1526 1529 1530 1532 1535 1537 1539 1541 1544 1546 1547 1549 1551 1551 1551 1554 1555 1557 1560 1562 1564 1566 1566 1565 1564 1563 1562 1560 1559 1558 1556 1554
Wind_Speed
19 19 19 19 20 22 22 20 17 15 13 14 18 17 14 16 18 19 17 17 17 17 15 13 9 13 16 19 18 18 17 16 16
18 20 19 21 21 22 21 20 19 16 15 17 21 17 16 15 16 18 19 18 14 16 14 13 12 12 12 14 15 15 16 14 13
20 21 22 22 22 22 23 23 21 18 17 19 18 14 13 15 15 17 16 13 11 10 9 11 9 8 10 10 8 8 9 8 8
21 21 22 23 22 23 24 23 21 20 18 17 15 13 12 16 16 14 12 7 8 6 4 4 9 10 11 11 11 13 12 11 11
22 22 22 23 23 23 24 23 22 22 18 16 14 11 7 10 16 13 12 12 5 1 5 11 13 13 14 14 14 15 15 16 15
22 21 22 23 23 24 25 23 21 20 16 15 12 7 6 9 15 14 13 7 5 12 13 14 14 15 16 16 16 16 16 16 15
21 21 22 23 23 25 25 23 20 15 13 13 10 7 6 9 12 13 11 9 11 12 14 14 15 15 15 14 14 14 14 14 13
20 20 21 24 24 27 25 23 20 15 12 12 9 6 6 9 11 14 14 12 12 12 13 14 14 14 14 14 13 13 13 13 12
20 20 21 22 24 25 24 21 18 15 12 10 8 6 8 10 10 16 15 13 12 12 12 13 13 13 12 12 11 11 11 11 11
21 21 22 23 24 26 24 20 17 15 13 10 7 7 10 11 12 14 16 14 13 12 11 12 13 11 10 10 9 10 10 10 10
20 21 21 22 23 25 25 21 18 15 12 10 8 8 11 12 12 13 14 13 13 14 12 11 10 11 9 8 8 8 8 9 9
19 20 21 21 21 22 24 21 18 15 12 10 10 10 11 11 12 11 11 10 9 9 9 9 7 7 7 8 7 8 9 10 11
19 19 19 20 20 20 21 20 18 15 13 13 11 10 10 11 11 11 10 8 7 6 6 4 3 2 3 5 7 9 11 12 13
19 19 19 19 20 20 21 20 18 16 15 13 10 9 9 9 10 9 8 7 6 5 4 2 1 1 3 6 8 10 13 14 15
19 20 20 21 21 22 22 21 19 16 15 13 12 10 9 8 8 8 7 7 6 6 5 4 3 4 5 7 9 12 14 16 17
20 21 21 23 23 23 23 22 22 21 19 17 15 12 11 10 10 8 8 7 7 7 6 6 5 5 7 8 11 14 16 17 17
22 22 23 24 24 25 25 25 26 24 24 22 18 12 13 15 15 12 11 9 8 8 8 8 7 7 8 11 15 17 18 17 17
24 24 24 25 26 27 27 27 28 28 27 25 16 9 10 18 19 18 16 13 11 11 10 9 9 9 11 14 18 20 20 19 19
26 26 26 26 27 28 28 28 28 27 28 29 27 16 8 10 10 21 20 17 15 13 12 11 11 12 14 17 20 21 21 20 21
27 28 28 28 29 29 29 29 29 29 29 30 29 29 21 15 12 11 21 21 19 16 15 15 14 14 16 20 22 22 22 23 23
Wind_Direction
136 136 136 136 142 142 145 156 152 149 137 121 110 101 98 100 101 95 95 94 97 102 98 105 105 107 102 102 96 92 88 84 82
144 137 138 139 140 144 149 146 144 140 125 123 118 120 115 109 106 101 106 104 110 103 108 100 92 108 118 113 113 110 105 100 98
141 141 141 140 141 145 146 146 142 132 128 124 129 127 126 129 117 110 110 105 124 111 125 111 106 98 82 83 95 118 124 123 103
146 145 145 145 147 148 147 147 137 134 137 137 140 147 131 140 123 118 116 117 122 133 163 125 105 97 83 81 79 81 74 81 71
151 150 150 151 154 154 152 153 147 147 145 149 153 144 142 144 136 121 116 111 88 70 159 105 94 87 84 79 76 75 75 74 71
154 153 153 154 156 158 160 162 161 156 155 143 141 134 132 146 165 146 153 152 126 100 105 95 92 88 84 81 77 75 72 69 69
157 156 155 157 158 160 166 166 169 166 154 148 148 146 120 141 144 122 133 140 112 108 98 98 92 88 83 80 77 74 71 66 62
160 160 158 160 161 165 169 172 171 173 162 159 161 155 135 145 132 125 121 119 122 107 99 97 93 88 83 78 73 69 64 59 53
165 164 162 164 165 169 174 177 171 172 170 171 169 151 148 153 144 130 129 130 120 112 104 99 94 89 83 77 70 63 55 47 42
170 169 167 167 169 173 179 181 180 182 180 176 171 154 156 158 154 141 138 136 126 116 109 104 98 87 79 68 58 50 43 38 35
176 174 172 170 171 176 183 191 192 193 193 182 169 162 161 162 161 157 153 149 133 127 118 111 99 92 74 58 49 41 33 24 17
181 179 177 176 177 180 185 193 195 194 185 183 170 169 167 166 165 162 160 156 150 143 134 123 121 89 72 52 35 20 9 358 352
192 190 189 187 186 188 189 192 190 192 192 188 176 174 169 167 167 166 168 166 164 160 157 148 125 85 36 15 2 357 348 342 339
199 199 197 195 193 188 189 190 200 197 192 193 187 176 174 176 177 179 179 177 178 181 184 195 242 318 344 344 345 343 339 336 331
204 202 205 202 197 193 194 198 198 206 202 196 188 185 186 191 192 196 202 203 203 209 222 240 270 298 321 331 335 334 333 331 330
212 209 209 206 206 203 198 198 200 197 203 197 189 193 203 208 211 213 210 219 225 229 243 252 272 292 308 318 327 328 329 327 327
217 214 212 211 209 206 206 205 199 203 202 201 194 193 210 216 218 225 223 230 236 243 253 254 266 280 298 312 321 323 326 324 324
220 218 217 216 214 214 212 211 213 207 203 206 199 189 216 214 221 222 225 232 236 246 250 254 266 279 294 305 314 319 320 319 320
222 221 220 220 220 217 218 217 218 216 216 211 215 218 207 191 212 220 222 231 237 247 250 259 266 276 291 302 307 309 313 316 320
225 224 223 223 222 221 221 220 221 223 224 224 221 223 225 218 216 213 218 224 227 237 247 256 265 276 287 296 299 302 307 309 313